This is the latest recevied weather packets stored in our database for station/object NK7E-2. If no packets are shown the sender has not sent any weather packets the latest 10 day(s).
| Time | Temp. | Humidity | Pressure | Rain* | Wind** | Luminosity | Snow |
|---|---|---|---|---|---|---|---|
| 1777751117 | 25.56° C | 25% | 1024.1 hPa | 0 mm | - | - | - |
| 1777750517 | 25.56° C | 27% | 1024.2 hPa | 0 mm | - | - | - |
| 1777749917 | 25° C | 27% | 1024.2 hPa | 0 mm | - | - | - |
| 1777749317 | 25° C | 28% | 1024.4 hPa | 0 mm | - | - | - |
| 1777748717 | 25° C | 28% | 1024.8 hPa | 0 mm | - | - | - |
| 1777748118 | 24.44° C | 29% | 1025.1 hPa | 0 mm | - | - | - |
| 1777747517 | 24.44° C | 29% | 1025.2 hPa | 0 mm | - | - | - |
| 1777746918 | 24.44° C | 29% | 1025.4 hPa | 0 mm | - | - | - |
| 1777746317 | 24.44° C | 30% | 1025.1 hPa | 0 mm | - | - | - |
| 1777745717 | 23.89° C | 30% | 1025.1 hPa | 0 mm | - | - | - |
| 1777745117 | 23.89° C | 31% | 1025.3 hPa | 0 mm | - | - | - |
| 1777744517 | 23.89° C | 32% | 1025.7 hPa | 0 mm | - | - | - |
| 1777743918 | 23.33° C | 31% | 1025.5 hPa | 0 mm | - | - | - |
| 1777743317 | 23.33° C | 31% | 1025.6 hPa | 0 mm | - | - | - |
| 1777742717 | 23.33° C | 33% | 1025.6 hPa | 0 mm | - | - | - |
| 1777742117 | 22.78° C | 33% | 1025.4 hPa | 0 mm | - | - | - |
| 1777741517 | 22.22° C | 34% | 1025.2 hPa | 0 mm | - | - | - |
| 1777740917 | 22.78° C | 34% | 1025.2 hPa | 0 mm | - | - | - |
| 1777740318 | 22.22° C | 34% | 1025.4 hPa | 0 mm | - | - | - |
| 1777739717 | 21.67° C | 35% | 1025.1 hPa | 0 mm | - | - | - |
| 1777739117 | 21.67° C | 36% | 1024.9 hPa | 0 mm | - | - | - |
| 1777738517 | 21.67° C | 35% | 1025.1 hPa | 0 mm | - | - | - |
| 1777737917 | 21.11° C | 37% | 1024.9 hPa | 0 mm | - | - | - |
| 1777737317 | 20.56° C | 38% | 1024.8 hPa | 0 mm | - | - | - |
| 1777736717 | 20.56° C | 38% | 1024.8 hPa | 0 mm | - | - | - |
* Rain latest hour (hover to see other rain measurements)
** Current wind speed in m/s (hover to see current wind gust speed)